Time,TemperatureF,DewpointF,PressureIn,WindDirection,WindDirectionDegrees,WindSpeedMPH,WindSpeedGustMPH,Humidity,HourlyPrecipIn,Conditions,Clouds,dailyrainin,SoftwareType,DateUTC
2013-03-17 00:02:00,10.0,6.0,-100.00,ESE,115,7.0,9.0,82,-99.99,,,-99.99,,2013-03-17 05:02:00,
2013-03-17 00:32:00,10.0,6.0,-100.00,ESE,115,7.0,9.0,82,-99.99,,,-99.99,,2013-03-17 05:32:00,
2013-03-17 00:42:00,10.0,6.0,-100.00,ESE,115,7.0,9.0,82,-99.99,,,-99.99,,2013-03-17 05:42:00,
2013-03-17 00:52:00,10.0,6.0,-100.00,ESE,115,7.0,9.0,82,-99.99,,,-99.99,,2013-03-17 05:52:00,
2013-03-17 01:02:00,11.0,6.0,-100.00,ESE,120,6.0,8.0,82,-99.99,,,-99.99,,2013-03-17 06:02:00,
2013-03-17 01:32:00,11.0,6.0,-100.00,ESE,120,6.0,8.0,82,-99.99,,,-99.99,,2013-03-17 06:32:00,
2013-03-17 01:42:00,11.0,6.0,-100.00,ESE,120,6.0,8.0,82,-99.99,,,-99.99,,2013-03-17 06:42:00,
2013-03-17 01:52:00,11.0,6.0,-100.00,ESE,120,6.0,8.0,82,-99.99,,,-99.99,,2013-03-17 06:52:00,
2013-03-17 02:02:00,11.0,8.0,-100.00,SE,125,8.0,10.0,88,-99.99,,,-99.99,,2013-03-17 07:02:00,
2013-03-17 02:32:00,11.0,8.0,-100.00,SE,125,8.0,10.0,88,-99.99,,,-99.99,,2013-03-17 07:32:00,
2013-03-17 02:42:00,11.0,8.0,-100.00,SE,125,8.0,10.0,88,-99.99,,,-99.99,,2013-03-17 07:42:00,
2013-03-17 02:52:00,11.0,8.0,-100.00,SE,125,8.0,10.0,88,-99.99,,,-99.99,,2013-03-17 07:52:00,
2013-03-17 03:02:00,11.0,10.0,-100.00,ESE,120,7.0,9.0,93,-99.99,,,-99.99,,2013-03-17 08:02:00,
2013-03-17 03:33:00,11.0,10.0,-100.00,ESE,120,7.0,9.0,93,-99.99,,,-99.99,,2013-03-17 08:33:00,
2013-03-17 03:42:00,11.0,10.0,-100.00,ESE,120,7.0,9.0,93,-99.99,,,-99.99,,2013-03-17 08:42:00,
2013-03-17 03:52:00,11.0,10.0,-100.00,ESE,120,7.0,9.0,93,-99.99,,,-99.99,,2013-03-17 08:52:00,
2013-03-17 04:02:00,12.0,11.0,-100.00,SE,140,9.0,12.0,95,-99.99,,,-99.99,,2013-03-17 09:02:00,
2013-03-17 04:33:00,12.0,11.0,-100.00,SE,140,9.0,12.0,95,-99.99,,,-99.99,,2013-03-17 09:33:00,
2013-03-17 04:43:00,12.0,11.0,-100.00,SE,140,9.0,12.0,95,-99.99,,,-99.99,,2013-03-17 09:43:00,
2013-03-17 04:53:00,12.0,11.0,-100.00,SE,140,9.0,12.0,95,-99.99,,,-99.99,,2013-03-17 09:53:00,
2013-03-17 05:02:00,12.0,11.0,-100.00,SSE,150,7.0,12.0,95,-99.99,,,-99.99,,2013-03-17 10:02:00,
2013-03-17 05:33:00,12.0,11.0,-100.00,SSE,150,7.0,12.0,95,-99.99,,,-99.99,,2013-03-17 10:33:00,
2013-03-17 05:42:00,12.0,11.0,-100.00,SSE,150,7.0,12.0,95,-99.99,,,-99.99,,2013-03-17 10:42:00,
2013-03-17 05:52:00,12.0,11.0,-100.00,SSE,150,7.0,12.0,95,-99.99,,,-99.99,,2013-03-17 10:52:00,
2013-03-17 06:02:00,11.0,10.0,-100.00,SE,140,7.0,9.0,95,-99.99,,,-99.99,,2013-03-17 11:02:00,
2013-03-17 06:32:00,11.0,10.0,-100.00,SE,140,7.0,9.0,95,-99.99,,,-99.99,,2013-03-17 11:32:00,
2013-03-17 06:43:00,11.0,10.0,-100.00,SE,140,7.0,9.0,95,-99.99,,,-99.99,,2013-03-17 11:43:00,
2013-03-17 06:52:00,11.0,10.0,-100.00,SE,140,7.0,9.0,95,-99.99,,,-99.99,,2013-03-17 11:52:00,
2013-03-17 07:02:00,11.0,9.0,-100.00,ESE,115,9.0,14.0,94,-99.99,,,-99.99,,2013-03-17 12:02:00,
2013-03-17 07:33:00,11.0,9.0,-100.00,ESE,115,9.0,14.0,94,-99.99,,,-99.99,,2013-03-17 12:33:00,
2013-03-17 07:43:00,11.0,9.0,-100.00,ESE,115,9.0,14.0,94,-99.99,,,-99.99,,2013-03-17 12:43:00,
2013-03-17 07:52:00,11.0,9.0,-100.00,ESE,115,9.0,14.0,94,-99.99,,,-99.99,,2013-03-17 12:52:00,
2013-03-17 08:02:00,11.0,10.0,-100.00,SE,135,9.0,15.0,94,-99.99,,,-99.99,,2013-03-17 13:02:00,
2013-03-17 08:32:00,11.0,10.0,-100.00,SE,135,9.0,15.0,94,-99.99,,,-99.99,,2013-03-17 13:32:00,
2013-03-17 08:43:00,11.0,10.0,-100.00,SE,135,9.0,15.0,94,-99.99,,,-99.99,,2013-03-17 13:43:00,
2013-03-17 08:52:00,11.0,10.0,-100.00,SE,135,9.0,15.0,94,-99.99,,,-99.99,,2013-03-17 13:52:00,
2013-03-17 09:02:00,12.0,11.0,-100.00,SE,140,11.0,15.0,93,-99.99,,,-99.99,,2013-03-17 14:02:00,
2013-03-17 09:33:00,12.0,11.0,-100.00,SE,140,11.0,15.0,93,-99.99,,,-99.99,,2013-03-17 14:33:00,
2013-03-17 09:43:00,12.0,11.0,-100.00,SE,140,11.0,15.0,93,-99.99,,,-99.99,,2013-03-17 14:43:00,
2013-03-17 09:53:00,12.0,11.0,-100.00,SE,140,11.0,15.0,93,-99.99,,,-99.99,,2013-03-17 14:53:00,
2013-03-17 10:02:00,14.0,12.0,-100.00,SSE,150,10.0,16.0,93,-99.99,,,-99.99,,2013-03-17 15:02:00,
2013-03-17 10:33:00,14.0,12.0,-100.00,SSE,150,10.0,16.0,93,-99.99,,,-99.99,,2013-03-17 15:33:00,
2013-03-17 10:43:00,14.0,12.0,-100.00,SSE,150,10.0,16.0,93,-99.99,,,-99.99,,2013-03-17 15:43:00,
2013-03-17 10:53:00,14.0,12.0,-100.00,SSE,150,10.0,16.0,93,-99.99,,,-99.99,,2013-03-17 15:53:00,
2013-03-17 11:02:00,15.0,14.0,-100.00,SSE,160,9.0,15.0,93,-99.99,,,-99.99,,2013-03-17 16:02:00,
2013-03-17 11:33:00,15.0,14.0,-100.00,SSE,160,9.0,15.0,93,-99.99,,,-99.99,,2013-03-17 16:33:00,
2013-03-17 11:43:00,15.0,14.0,-100.00,SSE,160,9.0,15.0,93,-99.99,,,-99.99,,2013-03-17 16:43:00,
2013-03-17 11:52:00,15.0,14.0,-100.00,SSE,160,9.0,15.0,93,-99.99,,,-99.99,,2013-03-17 16:52:00,
2013-03-17 12:02:00,18.0,16.0,-100.00,SE,140,12.0,16.0,92,-99.99,,,-99.99,,2013-03-17 17:02:00,
2013-03-17 12:33:00,18.0,16.0,-100.00,SE,140,12.0,16.0,92,-99.99,,,-99.99,,2013-03-17 17:33:00,
2013-03-17 12:42:00,18.0,16.0,-100.00,SE,140,12.0,16.0,92,-99.99,,,-99.99,,2013-03-17 17:42:00,
2013-03-17 12:53:00,18.0,16.0,-100.00,SE,140,12.0,16.0,92,-99.99,,,-99.99,,2013-03-17 17:53:00,
2013-03-17 13:02:00,19.0,17.0,-100.00,SSE,155,11.0,16.0,91,-99.99,,,-99.99,,2013-03-17 18:02:00,
2013-03-17 13:32:00,19.0,17.0,-100.00,SSE,155,11.0,16.0,91,-99.99,,,-99.99,,2013-03-17 18:32:00,
2013-03-17 13:42:00,19.0,17.0,-100.00,SSE,155,11.0,16.0,91,-99.99,,,-99.99,,2013-03-17 18:42:00,
2013-03-17 13:52:00,19.0,17.0,-100.00,SSE,155,11.0,16.0,91,-99.99,,,-99.99,,2013-03-17 18:52:00,
2013-03-17 14:02:00,21.0,19.0,-100.00,SSE,150,14.0,21.0,89,-99.99,,,-99.99,,2013-03-17 19:02:00,
2013-03-17 14:33:00,21.0,19.0,-100.00,SSE,150,14.0,21.0,89,-99.99,,,-99.99,,2013-03-17 19:33:00,
2013-03-17 14:42:00,21.0,19.0,-100.00,SSE,150,14.0,21.0,89,-99.99,,,-99.99,,2013-03-17 19:42:00,
2013-03-17 14:53:00,21.0,19.0,-100.00,SSE,150,14.0,21.0,89,-99.99,,,-99.99,,2013-03-17 19:53:00,
2013-03-17 15:02:00,22.0,20.0,-100.00,South,170,12.0,16.0,91,-99.99,,,-99.99,,2013-03-17 20:02:00,
2013-03-17 15:33:00,22.0,20.0,-100.00,South,170,12.0,16.0,91,-99.99,,,-99.99,,2013-03-17 20:33:00,
2013-03-17 15:43:00,22.0,20.0,-100.00,South,170,12.0,16.0,91,-99.99,,,-99.99,,2013-03-17 20:43:00,
2013-03-17 15:52:00,22.0,20.0,-100.00,South,170,12.0,16.0,91,-99.99,,,-99.99,,2013-03-17 20:52:00,
2013-03-17 16:02:00,23.0,21.0,-100.00,SE,130,11.0,15.0,94,-99.99,,,-99.99,,2013-03-17 21:02:00,
2013-03-17 16:33:00,23.0,21.0,-100.00,SE,130,11.0,15.0,94,-99.99,,,-99.99,,2013-03-17 21:33:00,
2013-03-17 16:43:00,23.0,21.0,-100.00,SE,130,11.0,15.0,94,-99.99,,,-99.99,,2013-03-17 21:43:00,
2013-03-17 16:52:00,23.0,21.0,-100.00,SE,130,11.0,15.0,94,-99.99,,,-99.99,,2013-03-17 21:52:00,
2013-03-17 17:02:00,24.0,24.0,-100.00,ESE,115,8.0,12.0,99,-99.99,,,-99.99,,2013-03-17 22:02:00,
2013-03-17 17:33:00,24.0,24.0,-100.00,ESE,115,8.0,12.0,99,-99.99,,,-99.99,,2013-03-17 22:33:00,
2013-03-17 17:42:00,24.0,24.0,-100.00,ESE,115,8.0,12.0,99,-99.99,,,-99.99,,2013-03-17 22:42:00,
2013-03-17 17:53:00,24.0,24.0,-100.00,ESE,115,8.0,12.0,99,-99.99,,,-99.99,,2013-03-17 22:53:00,
2013-03-17 18:02:00,25.0,25.0,-100.00,SSE,165,9.0,12.0,98,-99.99,,,-99.99,,2013-03-17 23:02:00,
2013-03-17 18:33:00,25.0,25.0,-100.00,SSE,165,9.0,12.0,98,-99.99,,,-99.99,,2013-03-17 23:33:00,
2013-03-17 18:43:00,25.0,25.0,-100.00,SSE,165,9.0,12.0,98,-99.99,,,-99.99,,2013-03-17 23:43:00,
2013-03-17 18:53:00,25.0,25.0,-100.00,SSE,165,9.0,12.0,98,-99.99,,,-99.99,,2013-03-17 23:53:00,
2013-03-17 19:02:00,24.0,24.0,-100.00,ESE,110,9.0,11.0,99,-99.99,,,-99.99,,2013-03-18 00:02:00,
2013-03-17 19:33:00,24.0,24.0,-100.00,ESE,110,9.0,11.0,99,-99.99,,,-99.99,,2013-03-18 00:33:00,
2013-03-17 19:42:00,24.0,24.0,-100.00,ESE,110,9.0,11.0,99,-99.99,,,-99.99,,2013-03-18 00:42:00,
2013-03-17 19:52:00,24.0,24.0,-100.00,ESE,110,9.0,11.0,99,-99.99,,,-99.99,,2013-03-18 00:52:00,
2013-03-17 20:02:00,25.0,25.0,-100.00,ESE,110,5.0,6.0,99,-99.99,,,-99.99,,2013-03-18 01:02:00,
2013-03-17 20:33:00,25.0,25.0,-100.00,ESE,110,5.0,6.0,99,-99.99,,,-99.99,,2013-03-18 01:33:00,
2013-03-17 20:42:00,25.0,25.0,-100.00,ESE,110,5.0,6.0,99,-99.99,,,-99.99,,2013-03-18 01:42:00,
2013-03-17 20:52:00,25.0,25.0,-100.00,ESE,110,5.0,6.0,99,-99.99,,,-99.99,,2013-03-18 01:52:00,
2013-03-17 21:02:00,26.0,26.0,-100.00,East,85,4.0,5.0,99,-99.99,,,-99.99,,2013-03-18 02:02:00,
2013-03-17 21:32:00,26.0,26.0,-100.00,East,85,4.0,5.0,99,-99.99,,,-99.99,,2013-03-18 02:32:00,
2013-03-17 21:42:00,26.0,26.0,-100.00,East,85,4.0,5.0,99,-99.99,,,-99.99,,2013-03-18 02:42:00,
2013-03-17 21:52:00,26.0,26.0,-100.00,East,85,4.0,5.0,99,-99.99,,,-99.99,,2013-03-18 02:52:00,
2013-03-17 22:02:00,26.0,26.0,-100.00,WNW,300,4.0,6.0,99,-99.99,,,-99.99,,2013-03-18 03:02:00,
2013-03-17 22:33:00,26.0,26.0,-100.00,WNW,300,4.0,6.0,99,-99.99,,,-99.99,,2013-03-18 03:33:00,
2013-03-17 22:42:00,26.0,26.0,-100.00,WNW,300,4.0,6.0,99,-99.99,,,-99.99,,2013-03-18 03:42:00,
2013-03-17 22:53:00,26.0,26.0,-100.00,WNW,300,4.0,6.0,99,-99.99,,,-99.99,,2013-03-18 03:53:00,
2013-03-17 23:02:00,26.0,26.0,-100.00,WNW,300,14.0,17.0,99,-99.99,,,-99.99,,2013-03-18 04:02:00,
2013-03-17 23:33:00,26.0,26.0,-100.00,WNW,300,14.0,17.0,99,-99.99,,,-99.99,,2013-03-18 04:33:00,
2013-03-17 23:42:00,26.0,26.0,-100.00,WNW,300,14.0,17.0,99,-99.99,,,-99.99,,2013-03-18 04:42:00,
2013-03-17 23:53:00,26.0,26.0,-100.00,WNW,300,14.0,17.0,99,-99.99,,,-99.99,,2013-03-18 04:53:00,